sat.trackr.live / text

‹ back to catalog

QZS-6 (QZSS/PRN 200)

NORAD 62876 · 2025-023A

PAYLOAD ACTIVE UNKNOWN

§ Identity

Operator
Country
JPN
Launch date
2025-02-02
Launch site
TANSC
Launch vehicle
Mass (kg)
RCS (m²)

Purposes: comms, nav

External: N2YO · Heavens-Above · Gunter

§ Orbital elements

Epoch: 2026-05-25T00:45:06.816096Z

Period
1,436.10 min
Inclination
0.0152°
Eccentricity
0.0002343
Mean motion
1.00271260 rev/d
Perigee alt
35,776.9 km
Apogee alt
35,796.6 km
Semi-major
42,164.9 km
B*
0.0000e+0
RAAN
313.5127°
Arg perigee
112.0892°
Mean anomaly
278.8207°
Rev number
471

§ Raw data

QZS-6 (QZSS/PRN 200)1 62876U 25023A   26145.03132889 -.00000236  00000+0  00000+0 0  99932 62876   0.0152 313.5127 0002343 112.0892 278.8207  1.00271260  4711

JSON: /api/v1/satellites/62876 · /tle

For live sub-satellite position, see the globe view (requires WebGL).

§ Visibility from observer

Set your observer location to see the next 7 days of passes ≥ 10°. The values pass through the URL so the page stays shareable.

No JS? Fill the form by hand. The geolocation button needs JavaScript.